Time,TemperatureF,DewpointF,PressureIn,WindDirection,WindDirectionDegrees,WindSpeedMPH,WindSpeedGustMPH,Humidity,HourlyPrecipIn,Conditions,Clouds,dailyrainin,SoftwareType,DateUTC
2013-05-05 00:07:00,47.1,42.2,30.11,SW,225,0.0,-999.0,83,-99.99,,,0.00,Acu-Link.com,2013-05-05 04:07:00,
2013-05-05 00:22:00,46.4,42.1,30.11,SSW,202,0.0,-999.0,85,-99.99,,,0.00,Acu-Link.com,2013-05-05 04:22:00,
2013-05-05 00:38:00,45.7,41.8,30.13,SSW,202,0.0,-999.0,86,-99.99,,,0.00,Acu-Link.com,2013-05-05 04:38:00,
2013-05-05 00:53:00,45.0,41.1,30.12,SSW,202,0.0,-999.0,86,-99.99,,,0.00,Acu-Link.com,2013-05-05 04:53:00,
2013-05-05 01:08:00,44.2,41.2,30.12,SSW,202,0.0,-999.0,89,-99.99,,,0.00,Acu-Link.com,2013-05-05 05:08:00,
2013-05-05 01:24:00,44.1,41.1,30.13,South,180,0.0,-999.0,89,-99.99,,,0.00,Acu-Link.com,2013-05-05 05:24:00,
2013-05-05 01:39:00,43.7,40.7,30.13,SE,135,0.0,-999.0,89,-99.99,,,0.00,Acu-Link.com,2013-05-05 05:39:00,
2013-05-05 01:54:00,43.0,40.0,30.12,WSW,247,0.0,-999.0,89,-99.99,,,0.00,Acu-Link.com,2013-05-05 05:54:00,
2013-05-05 02:10:00,42.4,39.4,30.12,SSW,202,0.0,-999.0,89,-99.99,,,0.00,Acu-Link.com,2013-05-05 06:10:00,
2013-05-05 02:25:00,42.1,39.4,30.12,South,180,0.0,-999.0,90,-99.99,,,0.00,Acu-Link.com,2013-05-05 06:25:00,
2013-05-05 02:40:00,41.5,38.8,30.12,West,270,0.0,-999.0,90,-99.99,,,0.00,Acu-Link.com,2013-05-05 06:40:00,
2013-05-05 02:55:00,41.2,38.8,30.12,ESE,112,0.0,-999.0,91,-99.99,,,0.00,Acu-Link.com,2013-05-05 06:55:00,
2013-05-05 03:11:00,41.2,39.3,30.13,East,90,0.0,-999.0,93,-99.99,,,0.00,Acu-Link.com,2013-05-05 07:11:00,
2013-05-05 03:26:00,41.0,39.1,30.13,SSW,202,0.0,-999.0,93,-99.99,,,0.00,Acu-Link.com,2013-05-05 07:26:00,
2013-05-05 03:41:00,40.6,38.7,30.12,SSE,157,0.0,-999.0,93,-99.99,,,0.00,Acu-Link.com,2013-05-05 07:41:00,
2013-05-05 03:56:00,40.6,39.0,30.14,SSW,202,0.0,-999.0,94,-99.99,,,0.00,Acu-Link.com,2013-05-05 07:56:00,
2013-05-05 04:12:00,40.5,38.9,30.14,NNE,22,0.0,-999.0,94,-99.99,,,0.00,Acu-Link.com,2013-05-05 08:12:00,
2013-05-05 04:27:00,40.5,38.9,30.14,SSE,157,0.0,-999.0,94,-99.99,,,0.00,Acu-Link.com,2013-05-05 08:27:00,
2013-05-05 04:42:00,39.7,38.1,30.13,SE,135,0.0,-999.0,94,-99.99,,,0.00,Acu-Link.com,2013-05-05 08:42:00,
2013-05-05 04:57:00,39.7,38.4,30.14,SSE,157,0.0,-999.0,95,-99.99,,,0.00,Acu-Link.com,2013-05-05 08:57:00,
2013-05-05 05:12:00,39.2,37.9,30.15,East,90,0.0,-999.0,95,-99.99,,,0.00,Acu-Link.com,2013-05-05 09:12:00,
2013-05-05 05:27:00,38.3,36.7,30.14,SSE,157,0.0,-999.0,94,-99.99,,,0.00,Acu-Link.com,2013-05-05 09:27:00,
2013-05-05 05:43:00,37.9,36.1,30.14,SW,225,0.0,-999.0,93,-99.99,,,0.00,Acu-Link.com,2013-05-05 09:43:00,
2013-05-05 05:58:00,37.4,35.8,30.14,SW,225,0.0,-999.0,94,-99.99,,,0.00,Acu-Link.com,2013-05-05 09:58:00,
2013-05-05 06:13:00,38.1,37.1,30.14,South,180,0.0,-999.0,96,-99.99,,,0.00,Acu-Link.com,2013-05-05 10:13:00,
2013-05-05 06:28:00,39.6,38.8,30.15,South,180,0.0,-999.0,97,-99.99,,,0.00,Acu-Link.com,2013-05-05 10:28:00,
2013-05-05 06:44:00,42.1,40.8,30.16,East,90,0.0,-999.0,95,-99.99,,,0.00,Acu-Link.com,2013-05-05 10:44:00,
2013-05-05 06:59:00,45.5,42.7,30.16,West,270,0.0,-999.0,90,-99.99,,,0.00,Acu-Link.com,2013-05-05 10:59:00,
2013-05-05 07:14:00,49.8,43.9,30.15,NE,45,0.0,-999.0,80,-99.99,,,0.00,Acu-Link.com,2013-05-05 11:14:00,
2013-05-05 07:30:00,52.5,44.8,30.16,East,90,0.0,-999.0,75,-99.99,,,0.00,Acu-Link.com,2013-05-05 11:30:00,
2013-05-05 07:45:00,49.8,44.2,30.16,ESE,112,2.2,-999.0,81,-99.99,,,0.00,Acu-Link.com,2013-05-05 11:45:00,
2013-05-05 08:00:00,51.8,44.5,30.15,ESE,112,1.1,-999.0,76,-99.99,,,0.00,Acu-Link.com,2013-05-05 12:00:00,
2013-05-05 08:15:00,54.3,44.7,30.16,ESE,112,0.0,-999.0,70,-99.99,,,0.00,Acu-Link.com,2013-05-05 12:15:00,
2013-05-05 08:30:00,56.5,45.7,30.15,East,90,1.7,-999.0,67,-99.99,,,0.00,Acu-Link.com,2013-05-05 12:30:00,
2013-05-05 08:46:00,57.7,46.0,30.16,West,270,3.2,-999.0,65,-99.99,,,0.00,Acu-Link.com,2013-05-05 12:46:00,
2013-05-05 09:01:00,58.1,45.6,30.15,SSW,202,4.2,-999.0,63,-99.99,,,0.00,Acu-Link.com,2013-05-05 13:01:00,
2013-05-05 09:16:00,58.8,45.8,30.14,West,270,1.7,-999.0,62,-99.99,,,0.00,Acu-Link.com,2013-05-05 13:16:00,
2013-05-05 09:32:00,60.4,46.0,30.14,WNW,292,4.2,-999.0,59,-99.99,,,0.00,Acu-Link.com,2013-05-05 13:32:00,
2013-05-05 09:47:00,61.0,46.6,30.15,SW,225,2.2,-999.0,59,-99.99,,,0.00,Acu-Link.com,2013-05-05 13:47:00,
2013-05-05 10:02:00,61.5,46.6,30.15,WNW,292,3.2,-999.0,58,-99.99,,,0.00,Acu-Link.com,2013-05-05 14:02:00,
2013-05-05 10:18:00,61.0,46.1,30.13,ESE,112,2.7,-999.0,58,-99.99,,,0.00,Acu-Link.com,2013-05-05 14:18:00,
2013-05-05 10:33:00,62.6,44.7,30.13,WNW,292,3.2,-999.0,52,-99.99,,,0.00,Acu-Link.com,2013-05-05 14:33:00,
2013-05-05 10:48:00,64.4,45.9,30.12,South,180,1.7,-999.0,51,-99.99,,,0.00,Acu-Link.com,2013-05-05 14:48:00,
2013-05-05 11:04:00,65.7,45.5,30.12,WNW,292,2.7,-999.0,48,-99.99,,,0.00,Acu-Link.com,2013-05-05 15:04:00,
2013-05-05 11:19:00,66.0,42.2,30.12,NNE,22,3.2,-999.0,42,-99.99,,,0.00,Acu-Link.com,2013-05-05 15:19:00,
2013-05-05 11:34:00,67.8,38.4,30.11,SSE,157,1.1,-999.0,34,-99.99,,,0.00,Acu-Link.com,2013-05-05 15:34:00,
2013-05-05 11:49:00,68.0,39.3,30.11,ESE,112,3.2,-999.0,35,-99.99,,,0.00,Acu-Link.com,2013-05-05 15:49:00,
2013-05-05 12:04:00,68.2,39.5,30.11,SSW,202,1.7,-999.0,35,-99.99,,,0.00,Acu-Link.com,2013-05-05 16:04:00,
2013-05-05 12:20:00,70.7,42.4,30.10,South,180,2.2,-999.0,36,-99.99,,,0.00,Acu-Link.com,2013-05-05 16:20:00,
2013-05-05 12:35:00,70.9,42.6,30.09,ESE,112,1.7,-999.0,36,-99.99,,,0.00,Acu-Link.com,2013-05-05 16:35:00,
2013-05-05 12:50:00,74.1,38.9,30.08,SW,225,4.7,-999.0,28,-99.99,,,0.00,Acu-Link.com,2013-05-05 16:50:00,
2013-05-05 13:05:00,74.8,39.5,30.08,West,270,4.7,-999.0,28,-99.99,,,0.00,Acu-Link.com,2013-05-05 17:05:00,
2013-05-05 13:21:00,73.2,37.2,30.07,SSE,157,5.8,-999.0,27,-99.99,,,0.00,Acu-Link.com,2013-05-05 17:21:00,
2013-05-05 13:36:00,73.6,31.3,30.07,NW,315,4.2,-999.0,21,-99.99,,,0.00,Acu-Link.com,2013-05-05 17:36:00,
2013-05-05 13:51:00,74.7,33.3,30.07,ESE,112,3.2,-999.0,22,-99.99,,,0.00,Acu-Link.com,2013-05-05 17:51:00,
2013-05-05 14:06:00,73.6,32.4,30.06,South,180,6.3,-999.0,22,-99.99,,,0.00,Acu-Link.com,2013-05-05 18:06:00,
2013-05-05 14:21:00,75.2,34.8,30.05,ESE,112,5.8,-999.0,23,-99.99,,,0.00,Acu-Link.com,2013-05-05 18:21:00,
2013-05-05 14:36:00,75.2,34.8,30.04,SW,225,6.3,-999.0,23,-99.99,,,0.00,Acu-Link.com,2013-05-05 18:36:00,
2013-05-05 14:52:00,75.7,34.2,30.04,West,270,4.2,-999.0,22,-99.99,,,0.00,Acu-Link.com,2013-05-05 18:52:00,
2013-05-05 15:07:00,75.6,31.7,30.03,NNE,22,5.8,-999.0,20,-99.99,,,0.00,Acu-Link.com,2013-05-05 19:07:00,
2013-05-05 15:22:00,75.7,31.8,30.02,ESE,112,7.8,-999.0,20,-99.99,,,0.00,Acu-Link.com,2013-05-05 19:22:00,
2013-05-05 15:37:00,75.4,33.9,30.02,South,180,4.2,-999.0,22,-99.99,,,0.00,Acu-Link.com,2013-05-05 19:37:00,
2013-05-05 15:52:00,75.7,29.2,30.02,NE,45,1.7,-999.0,18,-99.99,,,0.00,Acu-Link.com,2013-05-05 19:52:00,
2013-05-05 16:08:00,75.7,26.3,30.00,SE,135,3.7,-999.0,16,-99.99,,,0.00,Acu-Link.com,2013-05-05 20:08:00,
2013-05-05 16:23:00,79.2,33.4,30.01,SSW,202,4.7,-999.0,19,-99.99,,,0.00,Acu-Link.com,2013-05-05 20:23:00,
2013-05-05 16:38:00,79.5,29.4,29.99,South,180,3.2,-999.0,16,-99.99,,,0.00,Acu-Link.com,2013-05-05 20:38:00,
2013-05-05 16:53:00,78.3,29.9,30.00,ESE,112,3.2,-999.0,17,-99.99,,,0.00,Acu-Link.com,2013-05-05 20:53:00,
2013-05-05 17:08:00,76.6,29.9,30.01,SSE,157,4.7,-999.0,18,-99.99,,,0.00,Acu-Link.com,2013-05-05 21:08:00,
2013-05-05 17:24:00,77.9,32.3,29.99,WNW,292,1.1,-999.0,19,-99.99,,,0.00,Acu-Link.com,2013-05-05 21:24:00,
2013-05-05 17:39:00,74.5,30.8,30.00,South,180,2.2,-999.0,20,-99.99,,,0.00,Acu-Link.com,2013-05-05 21:39:00,
2013-05-05 17:54:00,73.9,30.3,29.99,SSE,157,6.3,-999.0,20,-99.99,,,0.00,Acu-Link.com,2013-05-05 21:54:00,
2013-05-05 18:09:00,72.9,29.5,30.01,ESE,112,5.8,-999.0,20,-99.99,,,0.00,Acu-Link.com,2013-05-05 22:09:00,
2013-05-05 18:24:00,72.0,28.7,30.01,WSW,247,2.7,-999.0,20,-99.99,,,0.00,Acu-Link.com,2013-05-05 22:24:00,
2013-05-05 18:40:00,71.6,28.4,30.02,SE,135,2.7,-999.0,20,-99.99,,,0.00,Acu-Link.com,2013-05-05 22:40:00,
2013-05-05 18:55:00,70.3,28.5,30.00,SSW,202,3.2,-999.0,21,-99.99,,,0.00,Acu-Link.com,2013-05-05 22:55:00,
2013-05-05 19:10:00,69.4,30.0,30.02,SSW,202,0.0,-999.0,23,-99.99,,,0.00,Acu-Link.com,2013-05-05 23:10:00,
2013-05-05 19:26:00,68.0,29.9,30.01,SSW,202,3.7,-999.0,24,-99.99,,,0.00,Acu-Link.com,2013-05-05 23:26:00,
2013-05-05 19:41:00,66.7,31.7,30.01,East,90,1.1,-999.0,27,-99.99,,,0.00,Acu-Link.com,2013-05-05 23:41:00,
2013-05-05 19:56:00,65.1,32.9,30.02,ENE,67,4.2,-999.0,30,-99.99,,,0.00,Acu-Link.com,2013-05-05 23:56:00,
2013-05-05 20:11:00,63.5,33.9,30.03,SSW,202,2.2,-999.0,33,-99.99,,,0.00,Acu-Link.com,2013-05-06 00:11:00,
2013-05-05 20:27:00,62.4,33.7,30.04,ESE,112,0.0,-999.0,34,-99.99,,,0.00,Acu-Link.com,2013-05-06 00:27:00,
2013-05-05 20:42:00,61.0,35.2,30.05,SSE,157,0.0,-999.0,38,-99.99,,,0.00,Acu-Link.com,2013-05-06 00:42:00,
2013-05-05 20:57:00,59.2,34.9,30.05,South,180,0.0,-999.0,40,-99.99,,,0.00,Acu-Link.com,2013-05-06 00:57:00,
2013-05-05 21:13:00,57.2,34.9,30.04,South,180,0.0,-999.0,43,-99.99,,,0.00,Acu-Link.com,2013-05-06 01:13:00,
2013-05-05 21:28:00,56.5,36.5,30.06,NNW,337,1.7,-999.0,47,-99.99,,,0.00,Acu-Link.com,2013-05-06 01:28:00,
2013-05-05 21:43:00,55.9,36.5,30.06,ESE,112,1.1,-999.0,48,-99.99,,,0.00,Acu-Link.com,2013-05-06 01:43:00,
2013-05-05 21:59:00,54.3,37.5,30.06,SW,225,0.0,-999.0,53,-99.99,,,0.00,Acu-Link.com,2013-05-06 01:59:00,
2013-05-05 22:14:00,52.5,38.2,30.08,SE,135,0.0,-999.0,58,-99.99,,,0.00,Acu-Link.com,2013-05-06 02:14:00,
2013-05-05 22:29:00,50.7,39.4,30.08,ESE,112,0.0,-999.0,65,-99.99,,,0.00,Acu-Link.com,2013-05-06 02:29:00,
2013-05-05 22:45:00,49.5,39.0,30.08,ESE,112,0.0,-999.0,67,-99.99,,,0.00,Acu-Link.com,2013-05-06 02:45:00,
2013-05-05 23:00:00,48.2,38.5,30.08,South,180,0.0,-999.0,69,-99.99,,,0.00,Acu-Link.com,2013-05-06 03:00:00,
2013-05-05 23:15:00,47.1,38.9,30.09,East,90,2.2,-999.0,73,-99.99,,,0.00,Acu-Link.com,2013-05-06 03:15:00,
2013-05-05 23:31:00,46.6,38.8,30.09,ESE,112,0.0,-999.0,74,-99.99,,,0.00,Acu-Link.com,2013-05-06 03:31:00,
2013-05-05 23:46:00,45.9,38.8,30.09,SSE,157,0.0,-999.0,76,-99.99,,,0.00,Acu-Link.com,2013-05-06 03:46:00,